Terminal Aerodrome Forecast
Issued by NWS Twin Cities, MN

Home | Current Version | Previous Version | Graphics & Text | Print | Product List | Glossary On
Versions: 1 2 3 4 5 6 7 8 9 10 11 12 13 14 15 16 17 18 19
000
FTUS43 KMPX 221200 AAA
TAFEAU
TAF AMD
KEAU 221251Z 2213/2312 23009KT P6SM SCT027 BKN045
     FM221500 29013G19KT P6SM FEW020 SCT045
     FM221700 32014G21KT P6SM SCT035 SCT250
     FM230000 35007KT P6SM FEW250=

USA.gov is the U.S. government's official web portal to all federal, state and local government web resources and services.